Zurück zum Katalog

SCOUT G-1 DEB

AktivPO
NORAD 14222·DEBRIS·🇺🇸 United States

Gestartet Jun 27, 1983 von Vandenberg Space Force Base

Loading…

Nächste Überflüge (nächste 24 Stunden)

TLE

AktuellSource: Space-Track

Epoche: Sep 14, 2026, 00:39 UTC

1 14222U 83063C   26257.02767145  .00001283  00000-0  19227-3 0  9993
2 14222  82.3646 278.2909 0014310 306.4662  53.5228 14.73916328290386

Verfolge SCOUT G-1 DEB in Echtzeit mit AllMySat

Download on the App Store